{"data":{"norad_id":45685,"epoch":"2026-05-25T00:33:55.190016Z","epoch_age_seconds":69438,"freshness":"FRESH","line1":"1 45685U 20035AE  26145.02355544  .00073452  00000+0  10279-2 0  9995","line2":"2 45685  53.0424  16.6217 0006579 128.8635 231.2963 15.56152241331196","mean_motion":15.56152241,"eccentricity":0.0006579,"inclination_deg":53.0424,"raan_deg":16.6217,"arg_perigee_deg":128.8635,"mean_anomaly_deg":231.2963,"bstar":0.0010279,"rev_number":33119,"period_min":92.535933314252,"perigee_km":394.3467235493,"apogee_km":403.26382419326,"semimajor_km":6776.9422738713,"source":"CELESTRAK","updated_at":"2026-05-25T13:38:16.429024Z"}}